AUA38 KEWR-LOWW

Flight info

Callsign AUA38
Flight time N/A
Altitude 31000
Route MERIT DCT HFD DCT PUT DCT WITCH/N0485F350 DCT ALLEX N565B TUDEP/M084F370 NATZ 53N030W/M084F390 NATZ ELSOX/N0477F390 DCT EVRIN DCT JETZI DCT AMFUL DCT CAWZE DCT SIRIC P2 DVR UL9 KONAN UL607 KOK DCT MATUG DCT BOMBI DCT TENLO/N0486F370 DCT DEXIT/N0482F330 DCT VENEN VENEN3W
Aircraft B772/H-SDE2E3FGHIJ5LORVWXY/LB1D1

Departure

Time 2026-04-20 01:38
Airport Newark Liberty International Airport (KEWR)

Arrival

Time N/A
Airport Vienna International Airport (LOWW)
Time Latitude Longitude Altitude Speed Heading
2026-04-20 01:19 40.69187 -74.17329 21 ft 0 kts 276°
2026-04-20 01:29 40.69185 -74.17312 24 ft 4 kts 272°
2026-04-20 01:29 40.69182 -74.17277 24 ft 4 kts 280°
2026-04-20 01:30 40.69179 -74.17242 27 ft 4 kts 270°
2026-04-20 01:30 40.69181 -74.17208 28 ft 4 kts 254°
2026-04-20 01:30 40.69192 -74.17177 28 ft 4 kts 221°
2026-04-20 01:30 40.69203 -74.17167 28 ft 1 kts 206°
2026-04-20 01:31 40.69205 -74.17166 28 ft 0 kts 206°
2026-04-20 01:33 40.69204 -74.17166 29 ft 3 kts 206°
2026-04-20 01:34 40.69097 -74.17234 21 ft 22 kts 206°
2026-04-20 01:34 40.68961 -74.17321 27 ft 22 kts 205°
2026-04-20 01:34 40.68826 -74.17407 29 ft 21 kts 206°
2026-04-20 01:34 40.68695 -74.17490 30 ft 21 kts 205°
2026-04-20 01:35 40.68562 -74.17575 29 ft 21 kts 206°
2026-04-20 01:35 40.68428 -74.17660 29 ft 21 kts 205°
2026-04-20 01:35 40.68295 -74.17744 31 ft 21 kts 206°
2026-04-20 01:35 40.68161 -74.17829 29 ft 21 kts 205°
2026-04-20 01:36 40.68028 -74.17913 31 ft 21 kts 207°
2026-04-20 01:36 40.67895 -74.17999 28 ft 21 kts 205°
2026-04-20 01:36 40.67762 -74.18083 29 ft 21 kts 205°
2026-04-20 01:36 40.67635 -74.18102 27 ft 17 kts 131°
2026-04-20 01:37 40.67566 -74.17972 27 ft 17 kts 108°
2026-04-20 01:37 40.67594 -74.17910 27 ft 0 kts 27°
2026-04-20 01:37 40.67710 -74.17837 28 ft 47 kts 25°
2026-04-20 01:38 40.68270 -74.17479 27 ft 129 kts 26°
2026-04-20 01:38 40.69240 -74.16833 269 ft 170 kts 21°
2026-04-20 01:38 40.70289 -74.16127 1265 ft 171 kts 23°
2026-04-20 01:38 40.71366 -74.15366 2066 ft 183 kts 32°
2026-04-20 01:39 40.72334 -74.14193 2704 ft 198 kts 39°
2026-04-20 01:39 40.73397 -74.12873 2967 ft 228 kts 39°
2026-04-20 01:39 40.74625 -74.11366 3408 ft 248 kts 39°
2026-04-20 01:39 40.75702 -74.09507 3955 ft 266 kts 62°
2026-04-20 01:40 40.76335 -74.07163 4545 ft 278 kts 68°
2026-04-20 01:40 40.76953 -74.04718 5381 ft 283 kts 67°
2026-04-20 01:40 40.77569 -74.02222 6183 ft 289 kts 67°
2026-04-20 01:40 40.78190 -73.99660 6907 ft 295 kts 67°
2026-04-20 01:41 40.78870 -73.97119 7568 ft 292 kts 56°
2026-04-20 01:41 40.80111 -73.95067 8005 ft 286 kts 37°
2026-04-20 01:41 40.81543 -73.93212 8698 ft 290 kts 37°
2026-04-20 01:41 40.82953 -73.91330 9447 ft 294 kts 37°
2026-04-20 01:42 40.84393 -73.89385 10119 ft 299 kts 37°
2026-04-20 01:42 40.85886 -73.87359 10393 ft 319 kts 38°
2026-04-20 01:42 40.87485 -73.85181 10576 ft 342 kts 38°
2026-04-20 01:42 40.89190 -73.82841 10777 ft 364 kts 39°
2026-04-20 01:43 40.90972 -73.80372 11356 ft 378 kts 40°
2026-04-20 01:43 40.92806 -73.77812 12105 ft 388 kts 40°
2026-04-20 01:43 40.94678 -73.75189 12986 ft 396 kts 41°
2026-04-20 01:43 40.96562 -73.72548 13908 ft 404 kts 41°
2026-04-20 01:44 40.98520 -73.69804 14550 ft 416 kts 42°
2026-04-20 01:44 41.00541 -73.66972 15136 ft 430 kts 43°
2026-04-20 01:44 41.02623 -73.64052 15708 ft 444 kts 44°
2026-04-20 01:44 41.04776 -73.61028 16191 ft 458 kts 44°
2026-04-20 01:45 41.06986 -73.57918 16828 ft 468 kts 45°
2026-04-20 01:45 41.09239 -73.54745 17476 ft 478 kts 46°
2026-04-20 01:45 41.11542 -73.51498 18083 ft 488 kts 46°
2026-04-20 01:45 41.13890 -73.48185 18625 ft 498 kts 47°
2026-04-20 01:46 41.16243 -73.44862 19264 ft 502 kts 47°
2026-04-20 01:46 41.18642 -73.41472 20000 ft 505 kts 46°
2026-04-20 01:46 41.21055 -73.38061 20719 ft 509 kts 47°
2026-04-20 01:46 41.23493 -73.34610 21296 ft 515 kts 47°
2026-04-20 01:47 41.25959 -73.31114 21881 ft 521 kts 46°
2026-04-20 01:47 41.28451 -73.27584 22429 ft 525 kts 47°
2026-04-20 01:47 41.30956 -73.24024 23107 ft 528 kts 47°
2026-04-20 01:47 41.33473 -73.20439 23699 ft 533 kts 47°
2026-04-20 01:48 41.35976 -73.16857 24149 ft 538 kts 49°
2026-04-20 01:48 41.38385 -73.13006 24572 ft 545 kts 55°
2026-04-20 01:48 41.40532 -73.08817 24932 ft 549 kts 63°
2026-04-20 01:48 41.42454 -73.04404 25409 ft 552 kts 64°
2026-04-20 01:49 41.44361 -72.99947 25900 ft 556 kts 64°
2026-04-20 01:49 41.46290 -72.95451 26358 ft 561 kts 64°
2026-04-20 01:49 41.48245 -72.90938 26764 ft 565 kts 64°
2026-04-20 01:49 41.50234 -72.86387 27224 ft 570 kts 64°
2026-04-20 01:50 41.52249 -72.81800 27623 ft 576 kts 64°
2026-04-20 01:50 41.54258 -72.77230 28032 ft 581 kts 64°
2026-04-20 01:50 41.56311 -72.72555 28435 ft 586 kts 64°
2026-04-20 01:50 41.58375 -72.67838 28849 ft 591 kts 64°
2026-04-20 01:51 41.60453 -72.63076 29244 ft 596 kts 64°
2026-04-20 01:51 41.62545 -72.58277 29589 ft 600 kts 64°
2026-04-20 01:51 41.64648 -72.53447 30067 ft 603 kts 64°
2026-04-20 01:51 41.66794 -72.48607 30449 ft 607 kts 63°
2026-04-20 01:52 41.68981 -72.43763 30883 ft 608 kts 63°
2026-04-20 01:52 41.71176 -72.38933 31378 ft 607 kts 63°
2026-04-20 01:52 41.73366 -72.34110 31913 ft 606 kts 64°
2026-04-20 01:52 41.75513 -72.29355 32437 ft 605 kts 64°
2026-04-20 01:53 41.77677 -72.24533 32884 ft 603 kts 64°
2026-04-20 01:53 41.79826 -72.19729 33601 ft 598 kts 65°
2026-04-20 01:53 41.81953 -72.14962 34265 ft 594 kts 65°
2026-04-20 01:53 41.84064 -72.10216 34741 ft 593 kts 65°
2026-04-20 01:54 41.86174 -72.05464 35086 ft 593 kts 64°
2026-04-20 01:54 41.88286 -72.00702 35042 ft 593 kts 64°
2026-04-20 01:54 41.98204 -71.80752 35052 ft 593 kts 51°
2026-04-20 01:55 42.07788 -71.68221 35035 ft 592 kts 45°